Regional Weather Roundup
Issued by NWS

Home | Current Version | Previous Version | Graphics & Text | Print | Product List | Glossary On
Versions: 1 2 3 4 5 6 7 8 9 10 11 12 13 14 15 16 17 18 19 20 21 22 23 24 25 26 27 28 29 30 31 32 33 34 35 36 37 38 39 40 41 42 43 44 45 46 47 48 49 50
000
ASUS43 KFSD 240102
RWRSD

WEATHER ROUNDUP FOR SOUTH DAKOTA
NATIONAL WEATHER SERVICE SIOUX FALLS SD
800 PM CDT FRI JUN 23 2017

NOTE: "FAIR" INDICATES FEW OR NO CLOUDS BELOW 12,000 FEET WITH NO
SIGNIFICANT WEATHER AND/OR OBSTRUCTIONS TO VISIBILITY.


SDZ001>005-009-010-012>017-240200-
NORTHWEST AND NORTH CENTRAL SOUTH DAKOTA

CITY           SKY/WX    TMP DP  RH WIND       PRES   REMARKS
BUFFALO          N/A     67  27  22 NW24G35   30.11R
FAITH            N/A     66  30  26 NW21G28   30.13R
MOBRIDGE       MOSUNNY   68  31  25 NW20G26   30.06R
$$

SDZ012>016-024>037-041>051-057-063-072>074-240200-
SOUTHWEST AND SOUTH CENTRAL SOUTH DAKOTA

CITY           SKY/WX    TMP DP  RH WIND       PRES   REMARKS
RAPID CTY ARPT SUNNY     67  27  22 N22G31    30.18R
PIERRE         SUNNY     68  32  26 NW14G24   30.09R
CUSTER         SUNNY     59  22  24 N8        30.25R
ELLSWORTH AFB  SUNNY     67  27  21 NW18G29   30.18R
PHILIP         SUNNY     70  28  21 NW17G26   30.13R
PINE RIDGE     SUNNY     68  33  27 NE15      30.18R
SPEARFISH      FAIR      63  28  27 NW16      30.23R
WINNER         FAIR      71  31  22 NW18      30.11R
$$

SDZ004>011-016>023-039-040-240200-
NORTHEAST SOUTH DAKOTA

CITY           SKY/WX    TMP DP  RH WIND       PRES   REMARKS
ABERDEEN       PTSUNNY   65  39  38 N15G22    30.04R
WATERTOWN      MOSUNNY   61  39  44 NW17G26   30.01R
BROOKINGS      PTSUNNY   63  42  46 NW12      30.02R
SISSETON         N/A     65  40  39 NW14      29.97R
$$

SDZ017-020-022-023-036>040-048>070-240200-
SOUTHEAST SOUTH DAKOTA

CITY           SKY/WX    TMP DP  RH WIND       PRES   REMARKS
SIOUX FALLS    MOSUNNY   66  41  40 NW14G26   30.01R
HURON          MOSUNNY   66  37  34 NW17      30.05R
CHAMBERLAIN    MOSUNNY   70  34  26 NW20      30.09R
MITCHELL       SUNNY     69  37  30 N13G23    30.05R
YANKTON        SUNNY     69  40  34 NW15      30.04R
$$

ABBREVIATIONS USED IN REMARKS
   TC - TEMPERATURE IN CELSIUS
  WCI - WIND CHILL INDEX
   HX - HEAT INDEX
  VSB - VISIBILITY





USA.gov is the U.S. government's official web portal to all federal, state and local government web resources and services.